Flag for Australia Weather past 2 weeks in Adelaide, South Australia, Australia

Now
57 °F

Sunny.


Feels Like: 54 °F
Forecast: 47 / 55 °F
Wind: 13 mph from Northeast

Location: Adelaide Airport

Current Time: Jul 23, 2014 at 5:42:28 PM

Latest Report: Jul 23, 2014 at 3:00 PM


Visibility: 10 mi

Pressure: 29.86 "Hg

Humidity: 67%

Dew point: 46 °F

Location of AdelaideLocation

Historic Weather in Adelaide — Graph

°F

Adelaide temperature yesterday

Maximum temperature yesterday: 64 °F (at 1:00 PM)
Minimum temperature yesterday: 37 °F (at 5:30 AM)
Average temperature yesterday: 50 °F

Past Weeks' High & Low Weather Summary

 TemperatureHumidityPressure
High64 °F (Jul 22, 1:00 PM)100% (Jul 11, 10:30 PM)30.54 "Hg (Jul 11, 10:30 PM)
Low37 °F (Jul 18, 4:30 AM)37% (Jul 22, 12:00 PM)29.36 "Hg (Jul 8, 3:00 PM)
Average50 °F75%30.13 "Hg
* Reported Jul 8 2:30 PM — Jul 23 3:00 PM, Adelaide, Weather by CustomWeather, © 2014

Note: Actual official high and low records may vary slightly from our data, if they occured in-between our weather recording intervals... More about our weather records

Advertising

Adelaide weather history for previous 24 hours

 ConditionsComfort  
Time TempWeatherWind HumidityBarometerVisibility
3:00 PM
Jul 23
57 °FSunny.13 mph67%29.86 "Hg10 mi
2:30 PM55 °FSunny.14 mph72%29.86 "Hg10 mi
1:30 PM54 °FLight rain. Partly sunny.9 mph82%29.92 "HgN/A
1:00 PM54 °FLight rain. More clouds than sun.13 mph77%29.98 "HgN/A
12:30 PM55 °FLight rain. Partly sunny.14 mph67%29.98 "HgN/A
12:00 PM57 °FLight rain. Partly sunny.16 mph59%30.01 "HgN/A
11:30 AM59 °FSunny.18 mph48%30.01 "Hg10 mi
11:00 AM61 °FSunny.15 mph39%30.04 "Hg10 mi
10:30 AM59 °FSunny.13 mph42%30.04 "Hg10 mi
9:00 AM55 °FLight rain. Partly sunny.9 mph51%30.04 "HgN/A
8:30 AM57 °FSunny.13 mph41%30.04 "Hg10 mi
2:00 AM54 °FClear.10 mph54%30.09 "Hg10 mi
1:30 AM54 °FClear.10 mph51%30.09 "Hg10 mi
1:00 AM54 °FClear.10 mph51%30.09 "Hg10 mi
12:30 AM54 °FClear.12 mph51%30.09 "Hg10 mi
12:00 AM52 °FClear.13 mph58%30.12 "Hg10 mi
11:30 PM
Jul 22
54 °FClear.10 mph54%30.12 "Hg10 mi
11:00 PM55 °FClear.10 mph51%30.12 "Hg10 mi
10:30 PM55 °FClear.10 mph47%30.12 "Hg10 mi
9:30 PM52 °FClear.8 mph58%30.12 "Hg10 mi
9:00 PM50 °FClear.7 mph67%30.12 "Hg10 mi
8:30 PM50 °FClear.5 mph71%30.12 "Hg10 mi
8:00 PM50 °FClear.3 mph76%30.12 "Hg10 mi
7:30 PM50 °FClear.No wind82%30.15 "Hg10 mi
7:00 PM50 °FClear.3 mph82%30.15 "Hg10 mi
6:30 PM50 °FClear.No wind82%30.15 "Hg10 mi
6:00 PM52 °FClear.No wind82%30.15 "Hg10 mi
5:30 PM55 °FClear.5 mph72%30.15 "Hg10 mi
5:00 PM57 °FClear.7 mph67%30.12 "Hg10 mi
Weather by CustomWeather, © 2014

See weather overviewHow to use our weather pages